CW0315 Weather Reports


time (UTC)temp
C
wind
direction
speed
KPH
gust
KPH
rain 1hr
cm
rain 24hr
cm
rain mn
cm
humidity
%
barometer
mb
20200226020310 0 0 0.0 3.2 0.05 0.10 0.05 91 993.4
20200226015310 0 0 0.0 0.0 0.05 0.10 0.05 91 993.4
20200226014310 0 0 0.0 0.0 0.05 0.10 0.05 91 994.2
20200226012309 1 292 1.6 3.2 0.05 0.10 0.05 90 994.4
20200226011309 1 157 1.6 4.8 0.05 0.08 0.05 89 994.7
20200226010309 1 45 1.6 12.9 0.03 0.05 0.03 87 994.9
20200226004314 2 247 1.6 9.7 0.00 0.05 0.00 85 994.8
20200226003314 2 180 3.2 8.0 0.00 0.05 0.00 84 995.1
20200226002313 2 135 3.2 9.7 0.00 0.05 0.00 84 995.1
20200226001313 2 157 4.8 8.0 0.00 0.05 0.00 85 995.1
20200226000313 2 180 3.2 11.3 0.00 0.05 0.00 85 995.3
20200225234313 2 270 1.6 19.3 0.00 0.05 0.00 84 994.8
20200225233313 3 270 14.5 22.5 0.00 0.05 0.00 87 994.8
20200225231313 3 157 4.8 12.9 0.00 0.05 0.00 86 995.2
20200225225312 3 157 3.2 9.7 0.00 0.05 0.05 89 995.1
20200225223312 3 292 3.2 11.3 0.00 0.05 0.05 89 995.6
20200225222312 3 292 4.8 14.5 0.00 0.05 0.05 90 995.6
20200225221312 3 90 3.2 11.3 0.00 0.05 0.05 90 995.6
20200225215312 3 157 6.4 12.9 0.00 0.05 0.05 91 995.7
20200225214311 3 45 3.2 11.3 0.00 0.05 0.05 92 996.2
20200225213311 3 45 3.2 9.7 0.00 0.05 0.05 92 996.3
20200225212313 3 157 4.8 9.7 0.00 0.05 0.05 92 996.3
20200225211311 3 157 3.2 11.3 0.00 0.05 0.05 92 996.5
20200225210311 3 135 3.2 12.9 0.00 0.05 0.05 92 996.7
20200225202310 3 135 6.4 12.9 0.00 0.05 0.05 92 996.7
20200225201310 3 180 4.8 9.7 0.00 0.05 0.05 92 996.8
20200225200310 4 157 4.8 11.3 0.00 0.05 0.05 92 997.3
20200225194310 4 135 6.4 25.7 0.00 0.05 0.05 92 997.2
20200225193310 4 180 4.8 16.1 0.00 0.05 0.05 93 997.2
20200225192310 4 157 4.8 17.7 0.00 0.05 0.05 93 997.2
20200225191310 4 112 6.4 14.5 0.00 0.05 0.05 94 997.3
20200225190310 4 90 4.8 11.3 0.00 0.05 0.05 95 997.5
20200225185309 4 135 6.4 12.9 0.00 0.05 0.05 95 997.5
20200225184309 4 157 4.8 17.7 0.00 0.05 0.05 96 997.6
20200225181314 4 90 3.2 9.7 0.00 0.05 0.05 96 997.9
20200225180314 4 270 3.2 9.7 0.00 0.05 0.05 96 997.9
20200225175313 4 157 6.4 14.5 0.00 0.05 0.05 97 997.9
20200225173313 4 157 3.2 6.4 0.00 0.05 0.05 96 997.7
20200225171313 4 157 4.8 11.3 0.00 0.05 0.05 96 997.7
20200225170313 4 157 6.4 9.7 0.00 0.05 0.05 96 997.7
20200225163312 4 180 1.6 12.9 0.05 0.05 0.05 95 998.0
20200225162312 4 90 1.6 6.4 0.05 0.05 0.05 94 998.0
20200225161312 4 157 4.8 11.3 0.05 0.05 0.05 94 998.1
20200225160312 4 157 6.4 11.3 0.05 0.05 0.05 93 998.3
20200225151311 5 135 4.8 12.9 0.00 0.00 0.00 86 998.6
20200225150311 5 360 4.8 12.9 0.00 0.00 0.00 84 998.7
20200225145311 5 292 4.8 11.3 0.00 0.00 0.00 81 998.7
20200225143311 5 315 6.4 16.1 0.00 0.00 0.00 79 998.7
20200225142311 5 315 3.2 9.7 0.00 0.00 0.00 78 998.9
20200225141311 5 67 3.2 16.1 0.00 0.00 0.00 76 999.0
20200225140310 5 135 8.0 14.5 0.00 0.00 0.00 75 999.2
20200225135310 5 67 4.8 11.3 0.00 0.00 0.00 75 999.2
20200225134310 6 292 4.8 9.7 0.00 0.00 0.00 73 999.1
20200225133310 6 157 8.0 17.7 0.00 0.00 0.00 71 999.5
20200225130310 6 270 8.0 14.5 0.00 0.00 0.00 69 1000.1
20200225124309 6 112 4.8 17.7 0.00 0.00 0.00 69 1000.2
20200225123309 6 112 8.0 16.1 0.00 0.00 0.00 68 1000.3
20200225121314 6 135 3.2 24.1 0.00 0.00 0.00 69 1000.7
20200225120314 6 90 1.6 8.0 0.00 0.00 0.00 72 1001.1
20200225114314 6 45 4.8 16.1 0.00 0.00 0.00 74 1001.3
20200225113313 6 360 6.4 20.9 0.00 0.00 0.00 79 1001.3
20200225111313 5 180 4.8 12.9 0.00 0.00 0.00 89 1001.4
20200225104313 3 180 1.6 4.8 0.00 0.00 0.00 96 1001.6
20200225103313 3 135 0.0 4.8 0.00 0.00 0.00 95 1001.7
20200225102312 3 180 1.6 4.8 0.00 0.00 0.00 95 1001.9
20200225101313 3 180 1.6 4.8 0.00 0.00 0.00 95 1001.9
20200225094312 3 157 3.2 4.8 0.00 0.00 0.00 96 1002.1
20200225092312 3 157 1.6 4.8 0.00 0.00 0.00 96 1002.2
20200225084311 3 157 1.6 4.8 0.00 0.00 0.00 99 1002.5
20200225083311 3 0 0.0 0.0 0.00 0.00 0.00 99 1002.5
20200225082311 3 45 0.0 1.6 0.00 0.00 0.00 99 1002.5
20200225074310 2 45 1.6 4.8 0.00 0.00 0.00 98 1002.5
20200225072310 2 22 4.8 6.4 0.00 0.00 0.00 98 1002.9
20200225070310 2 22 3.2 6.4 0.00 0.00 0.00 98 1002.7
20200225063309 2 360 4.8 8.0 0.00 0.00 0.00 98 1002.9
20200225061309 2 22 4.8 6.4 0.00 0.00 0.00 97 1002.9
20200225060309 2 22 3.2 4.8 0.00 0.00 0.00 98 1002.9
20200225055314 2 22 3.2 4.8 0.00 0.00 0.00 98 1002.7
20200225053314 1 22 1.6 4.8 0.00 0.00 0.00 97 1002.9
20200225051313 1 360 4.8 6.4 0.00 0.00 0.00 97 1003.1
20200225050313 1 360 3.2 4.8 0.00 0.00 0.00 97 1003.3
20200225045313 1 360 4.8 6.4 0.00 0.00 0.00 97 1003.1
20200225044313 2 360 4.8 6.4 0.00 0.00 0.00 97 1003.3
20200225043313 2 45 3.2 4.8 0.00 0.00 0.00 97 1003.4
20200225041313 2 157 0.0 3.2 0.00 0.00 0.00 98 1003.7
20200225035312 3 157 0.0 3.2 0.00 0.00 0.00 98 1004.0
20200225031312 3 180 1.6 4.8 0.00 0.00 0.00 99 1004.1
20200225030312 3 135 0.0 3.2 0.00 0.00 0.00 98 1004.5
20200225023312 3 0 0.0 3.2 0.00 0.00 0.00 98 1004.8
20200225022311 3 180 0.0 8.0 0.00 0.00 0.00 98 1004.8